SAS1321 ENAL-ENGM

Flight info

Callsign SAS1321
Flight time N/A
Altitude 29000
Route GIGIR DCT KEMIV DCT BELGU
Aircraft E195/M-SDE3GILORVW/S

Departure

Time 2026-04-22 10:31
Airport Ålesund Airport (ENAL)

Arrival

Time N/A
Airport Oslo-Gardermoen International Airport (ENGM)
Time Latitude Longitude Altitude Speed Heading
2026-04-22 10:11 62.55894 6.11395 78 ft 0 kts 154°
2026-04-22 10:24 62.55903 6.11385 66 ft 4 kts 154°
2026-04-22 10:24 62.55928 6.11360 68 ft 4 kts 155°
2026-04-22 10:24 62.55934 6.11353 66 ft 0 kts 155°
2026-04-22 10:27 62.55932 6.11373 71 ft 3 kts 98°
2026-04-22 10:27 62.55958 6.11416 73 ft 8 kts 31°
2026-04-22 10:27 62.56024 6.11462 75 ft 7 kts 43°
2026-04-22 10:28 62.56049 6.11582 74 ft 10 kts 68°
2026-04-22 10:28 62.56083 6.11745 70 ft 15 kts 65°
2026-04-22 10:28 62.56129 6.11952 71 ft 16 kts 64°
2026-04-22 10:28 62.56210 6.12126 70 ft 20 kts 19°
2026-04-22 10:29 62.56316 6.12268 62 ft 21 kts 65°
2026-04-22 10:29 62.56386 6.12595 51 ft 28 kts 65°
2026-04-22 10:29 62.56444 6.12930 46 ft 15 kts 95°
2026-04-22 10:29 62.56468 6.13036 46 ft 8 kts 357°
2026-04-22 10:30 62.56464 6.12951 46 ft 8 kts 227°
2026-04-22 10:30 62.56450 6.12893 44 ft 0 kts 246°
2026-04-22 10:30 62.56449 6.12886 45 ft 5 kts 246°
2026-04-22 10:30 62.56368 6.12514 53 ft 58 kts 245°
2026-04-22 10:31 62.56104 6.11319 77 ft 118 kts 243°
2026-04-22 10:31 62.55681 6.09386 218 ft 158 kts 243°
2026-04-22 10:31 62.55194 6.07119 896 ft 170 kts 245°
2026-04-22 10:31 62.54700 6.04796 1626 ft 178 kts 246°
2026-04-22 10:32 62.54147 6.02232 1989 ft 195 kts 245°
2026-04-22 10:32 62.53519 5.99436 2375 ft 217 kts 244°
2026-04-22 10:32 62.52843 5.96406 3040 ft 223 kts 245°
2026-04-22 10:32 62.52150 5.93271 3546 ft 240 kts 245°
2026-04-22 10:33 62.51404 5.89927 4118 ft 252 kts 244°
2026-04-22 10:33 62.50294 5.86905 4740 ft 267 kts 217°
2026-04-22 10:33 62.48537 5.85506 5485 ft 277 kts 187°
2026-04-22 10:33 62.46624 5.86040 6229 ft 282 kts 159°
2026-04-22 10:34 62.44833 5.87847 6967 ft 287 kts 152°
2026-04-22 10:34 62.43060 5.89881 7637 ft 291 kts 152°
2026-04-22 10:34 62.41269 5.91975 8324 ft 294 kts 150°
2026-04-22 10:34 62.39485 5.94208 9019 ft 298 kts 149°
2026-04-22 10:35 62.37689 5.96491 9754 ft 302 kts 149°
2026-04-22 10:35 62.35848 5.98796 10258 ft 315 kts 150°
2026-04-22 10:35 62.33918 6.01208 10785 ft 326 kts 150°
2026-04-22 10:35 62.31884 6.03739 11493 ft 331 kts 150°
2026-04-22 10:36 62.29875 6.06213 12289 ft 334 kts 150°
2026-04-22 10:36 62.27860 6.08720 13158 ft 336 kts 150°
2026-04-22 10:36 62.25824 6.11239 14051 ft 339 kts 150°
2026-04-22 10:36 62.23767 6.13783 14844 ft 345 kts 149°
2026-04-22 10:37 62.21677 6.16357 15661 ft 348 kts 149°
2026-04-22 10:37 62.17467 6.21522 17392 ft 349 kts 148°
2026-04-22 10:37 62.15350 6.24120 18180 ft 352 kts 148°
2026-04-22 10:38 62.13213 6.26734 18934 ft 355 kts 148°
2026-04-22 10:38 62.11057 6.29369 19612 ft 359 kts 148°
2026-04-22 10:38 62.08874 6.32033 20279 ft 363 kts 148°
2026-04-22 10:38 62.06678 6.34706 21028 ft 364 kts 148°
2026-04-22 10:39 62.04470 6.37390 21671 ft 367 kts 148°
2026-04-22 10:39 62.02239 6.40097 22281 ft 371 kts 148°
2026-04-22 10:39 61.99985 6.42822 22864 ft 374 kts 147°
2026-04-22 10:39 61.97713 6.45561 23446 ft 377 kts 147°
2026-04-22 10:40 61.95418 6.48318 24017 ft 380 kts 147°
2026-04-22 10:40 61.93106 6.51100 24553 ft 382 kts 147°
2026-04-22 10:40 61.90788 6.53879 25118 ft 383 kts 147°
2026-04-22 10:40 61.88464 6.56663 25745 ft 385 kts 147°
2026-04-22 10:41 61.86129 6.59453 26184 ft 386 kts 147°
2026-04-22 10:41 61.83840 6.62408 26675 ft 384 kts 138°
2026-04-22 10:41 61.81941 6.66318 27179 ft 381 kts 129°
2026-04-22 10:41 61.80155 6.70464 27658 ft 382 kts 129°
2026-04-22 10:42 61.78351 6.74601 28138 ft 384 kts 129°
2026-04-22 10:42 61.76537 6.78751 28597 ft 385 kts 129°
2026-04-22 10:42 61.74715 6.82908 29051 ft 387 kts 129°
2026-04-22 10:42 61.72868 6.87119 29177 ft 396 kts 129°
2026-04-22 10:43 61.70975 6.91444 29191 ft 407 kts 129°
2026-04-22 10:43 61.67053 7.00351 29222 ft 420 kts 129°
2026-04-22 10:44 61.63071 7.09355 29160 ft 424 kts 129°
2026-04-22 10:44 61.59008 7.18501 29241 ft 429 kts 129°
2026-04-22 10:44 61.56969 7.23079 29348 ft 430 kts 129°
2026-04-22 10:45 61.54926 7.27657 29489 ft 431 kts 129°
2026-04-22 10:45 61.50829 7.36812 29433 ft 431 kts 129°
2026-04-22 10:46 61.46721 7.45957 29441 ft 431 kts 129°
2026-04-22 10:46 61.42612 7.55060 29392 ft 430 kts 129°
2026-04-22 10:47 61.38496 7.64141 29394 ft 431 kts 129°
2026-04-22 10:47 61.34371 7.73212 29390 ft 433 kts 129°
2026-04-22 10:48 61.30165 7.82267 29378 ft 435 kts 130°
2026-04-22 10:48 61.25930 7.91265 29383 ft 436 kts 130°
2026-04-22 10:49 61.21691 8.00255 29388 ft 436 kts 130°
2026-04-22 10:49 61.17447 8.09225 29372 ft 436 kts 130°
2026-04-22 10:50 61.13201 8.18170 29370 ft 435 kts 130°
2026-04-22 10:50 61.08948 8.27093 29374 ft 435 kts 130°